Starlink 31187

operational
NORAD ID: 58790 Int'l Des: 2024-012 Owner: SPXS Country: US Constellation: starlink
LEOCIRCULAR

About Starlink 31187

Description loading...

Live Position

Loading 3D Globe...

Upcoming Passes

Altitude History

Altitude vs Time

uPlot chart will show altitude changes over time

Two-Line Element Set

1 58790U 24012D 25349.87646989 .00005817 00000-0 22075-3 0 9998
2 58790 43.0025 278.9416 0001345 288.0217 72.0488 15.27578685108410
Epoch: Dec 15, 2025 • Age: 23 hours

Current Status

Altitude 493.8 km
Velocity 7.62 km/s
Sub-Earth Point -39.09°S, 176.5°W
Launch Date Jan 15, 2024
Age 1.9 years
Type internet

Technical Details

Classification Payload
Mass 730.00 kg
Dry Mass 700.00 kg
Total Mass 730.00 kg
Length 0.30 m
Diameter 4.10 m
Span 29.00 m
Shape Box + pan
Manufacturer SPXS
Bus Type Starlink V2M
Phase Status In Orbit
Owner/State SPXS/US

Large Constellations

Loading constellations...